Weather History for Columbia Airport, CA

Change the Weather History Date:

Sunday, August 25, 2013

  Actual Average (KMOD) Record (KMOD)
Temperature  
Mean Temperature 70 °F -  
Max Temperature 86 °F 93 °F 107 °F (2010)
Min Temperature 55 °F 62 °F 48 °F (1963)
Degree Days  
Heating Degree Days 0 0  
Month to date heating degree days 0  
Since 1 June heating degree days 3  
Since 1 July heating degree days 0  
Cooling Degree Days 6 12  
Month to date cooling degree days 330  
Year to date cooling degree days 1265  
Since 1 June cooling degree days 1066  
Growing Degree Days 20 (Base 50)    
Moisture  
Dew Point 46 °F    
Average Humidity 47    
Maximum Humidity 72    
Minimum Humidity 22    
Precipitation  
Precipitation 0.00 in 0.00 in 0.00 in (2014)
Month to date precipitation 0.02  
Year to date precipitation 8.77  
Since 1 July precipitation 0.02  
Snow  
Snow 0.00 in - - ()
Month to date snowfall  
Since 1 June snowfall  
Since 1 July snowfall  
Snow Depth -    
Sea Level Pressure  
Sea Level Pressure 29.95 in    
Wind  
Wind Speed 2 mph (SSW)    
Max Wind Speed 10 mph    
Max Gust Speed 16 mph    
Visibility 8 miles    
Events      
T = Trace of Precipitation, MM = Missing Value Source: NWS Daily Summary

Daily Weather History Graph

Daily Weather History Graph

Search for Another Location

Airport:

Trip Planner

Search our weather history database for the weather conditions in past years. The results will help you decide how hot, cold, wet, or windy it might be!

Date:

Astronomy

Aug. 25, 2013 Rise Set
Actual Time 6:25 AM PDT 7:40 PM PDT
Civil Twilight 5:58 AM PDT 8:08 PM PDT
Nautical Twilight 5:25 AM PDT 8:40 PM PDT
Astronomical Twilight 4:51 AM PDT 9:14 PM PDT
Moon 10:21 PM PDT (8/25) 11:27 AM PDT (8/25)
Length of Visible Light 14h 09m
Length of Day
13h 15m
Waning Gibbous, 75% of the Moon is Illuminated
Aug 25
Waning Gibbous
Aug 28
Last Quarter
Sep 5
New
Sep 12
First Quarter
Sep 19
Full

Hourly Weather History & Observations

Time (PDT) Temp. Dew Point Humidity Pressure Visibility Wind Dir Wind Speed Gust Speed Precip Events Conditions
12:15 AM 59.0 °F 46.4 °F 63% 29.93 in 10.0 mi Calm Calm - N/A   Mostly Cloudy
12:35 AM 57.2 °F 46.4 °F 67% 29.93 in 10.0 mi Calm Calm - N/A   Mostly Cloudy
12:55 AM 57.2 °F 46.4 °F 67% 29.93 in 10.0 mi Calm Calm - N/A   Overcast
1:15 AM 55.4 °F 46.4 °F 72% 29.93 in 10.0 mi Calm Calm - N/A   Overcast
1:35 AM 55.4 °F 46.4 °F 72% 29.93 in 10.0 mi Calm Calm - N/A   Overcast
1:55 AM 57.2 °F 46.4 °F 67% 29.93 in 10.0 mi NE 3.5 mph - N/A   Overcast
2:15 AM 55.4 °F 46.4 °F 72% 29.93 in 10.0 mi Calm Calm - N/A   Overcast
2:35 AM 55.4 °F 46.4 °F 72% 29.93 in 10.0 mi Calm Calm - N/A   Scattered Clouds
2:55 AM 55.4 °F 46.4 °F 72% 29.93 in 10.0 mi Calm Calm - N/A   Clear
3:15 AM 55.4 °F 46.4 °F 72% 29.93 in 10.0 mi Calm Calm - N/A   Clear
3:35 AM 55.4 °F 46.4 °F 72% 29.93 in 10.0 mi Calm Calm - N/A   Partly Cloudy
3:55 AM 55.4 °F 46.4 °F 72% 29.93 in 10.0 mi Calm Calm - N/A   Mostly Cloudy
4:15 AM 55.4 °F 46.4 °F 72% 29.93 in 10.0 mi Calm Calm - N/A   Overcast
4:35 AM 55.4 °F 46.4 °F 72% 29.93 in 9.0 mi Calm Calm - N/A   Overcast
4:55 AM 55.4 °F 46.4 °F 72% 29.93 in 5.0 mi NNW 3.5 mph - N/A   Overcast
5:15 AM 55.4 °F 46.4 °F 72% 29.93 in 5.0 mi ENE 4.6 mph - N/A   Scattered Clouds
5:35 AM 55.4 °F 46.4 °F 72% 29.93 in 3.0 mi Calm Calm - N/A   Clear
5:55 AM 55.4 °F 46.4 °F 72% 29.93 in 3.0 mi Calm Calm - N/A   Clear
6:15 AM 55.4 °F 46.4 °F 72% 29.94 in 2.0 mi NE 4.6 mph - N/A   Clear
6:35 AM 55.4 °F 46.4 °F 72% 29.95 in 2.0 mi Calm Calm - N/A   Clear
6:55 AM 57.2 °F 46.4 °F 67% 29.95 in 1.2 mi NE 3.5 mph - N/A   Clear
7:15 AM 59.0 °F 48.2 °F 67% 29.95 in 1.2 mi Calm Calm - N/A   Clear
7:35 AM 62.6 °F 46.4 °F 55% 29.96 in 1.2 mi Calm Calm - N/A   Clear
7:55 AM 62.6 °F 44.6 °F 52% 29.96 in 1.0 mi Calm Calm - N/A   Clear
8:15 AM 66.2 °F 44.6 °F 46% 29.96 in 1.2 mi Calm Calm - N/A   Scattered Clouds
8:35 AM 66.2 °F 44.6 °F 46% 29.96 in 1.0 mi Calm Calm - N/A   Mostly Cloudy
8:55 AM 71.6 °F 44.6 °F 38% 29.97 in 1.2 mi WNW 3.5 mph - N/A   Clear
9:15 AM 71.6 °F 44.6 °F 38% 29.97 in 1.5 mi NW 3.5 mph - N/A   Clear
9:35 AM 73.4 °F 42.8 °F 33% 29.97 in 1.5 mi Calm Calm - N/A   Clear
9:55 AM 75.2 °F 42.8 °F 31% 29.97 in 1.2 mi Calm Calm - N/A   Clear
10:15 AM 75.2 °F 44.6 °F 34% 29.98 in 1.5 mi Calm Calm - N/A   Clear
10:35 AM 75.2 °F 46.4 °F 36% 29.98 in 1.8 mi South 4.6 mph - N/A   Clear
10:55 AM 77.0 °F 46.4 °F 34% 29.98 in 4.0 mi South 8.1 mph - N/A   Clear
11:15 AM 80.6 °F 46.4 °F 30% 29.98 in 8.0 mi SSW 5.8 mph - N/A   Clear
11:35 AM 82.4 °F 46.4 °F 28% 29.98 in 9.0 mi SSW 6.9 mph - N/A   Clear
11:55 AM 82.4 °F 48.2 °F 30% 29.98 in 10.0 mi SW 5.8 mph - N/A   Clear
12:15 PM 82.4 °F 48.2 °F 30% 29.98 in 10.0 mi SW 9.2 mph - N/A   Clear
12:35 PM 84.2 °F 48.2 °F 29% 29.98 in 10.0 mi South 8.1 mph - N/A   Clear
12:55 PM 84.2 °F 48.2 °F 29% 29.97 in 10.0 mi SW 9.2 mph - N/A   Clear
1:15 PM 82.4 °F 48.2 °F 30% 29.98 in 10.0 mi SSW 6.9 mph - N/A   Clear
1:35 PM 84.2 °F 46.4 °F 27% 29.97 in 10.0 mi South 6.9 mph - N/A   Clear
1:55 PM 84.2 °F 44.6 °F 25% 29.97 in 10.0 mi SSW 5.8 mph - N/A   Clear
2:15 PM 84.2 °F 44.6 °F 25% 29.96 in 10.0 mi SSE 9.2 mph 16.1 mph N/A   Clear
2:35 PM 84.2 °F 42.8 °F 23% 29.96 in 10.0 mi South 10.4 mph - N/A   Clear
2:55 PM 84.2 °F 42.8 °F 23% 29.95 in 10.0 mi SSW 4.6 mph - N/A   Clear
3:15 PM 86.0 °F 42.8 °F 22% 29.95 in 10.0 mi SSW 8.1 mph - N/A   Clear
3:35 PM 86.0 °F 44.6 °F 23% 29.95 in 10.0 mi WSW 9.2 mph - N/A   Clear
3:55 PM 84.2 °F 44.6 °F 25% 29.94 in 10.0 mi SE 4.6 mph - N/A   Clear
4:15 PM 84.2 °F 44.6 °F 25% 29.94 in 10.0 mi SSW 5.8 mph - N/A   Clear
4:35 PM 84.2 °F 44.6 °F 25% 29.94 in 10.0 mi SSW 5.8 mph - N/A   Clear
4:55 PM 84.2 °F 44.6 °F 25% 29.93 in 10.0 mi SSW 6.9 mph - N/A   Clear
5:15 PM 82.4 °F 44.6 °F 26% 29.93 in 10.0 mi SSW 4.6 mph - N/A   Clear
5:35 PM 84.2 °F 44.6 °F 25% 29.93 in 10.0 mi SW 6.9 mph - N/A   Clear
5:55 PM 82.4 °F 42.8 °F 25% 29.93 in 10.0 mi SW 5.8 mph - N/A   Clear
6:15 PM 80.6 °F 44.6 °F 28% 29.92 in 10.0 mi Calm Calm - N/A   Clear
6:35 PM 80.6 °F 42.8 °F 26% 29.92 in 10.0 mi South 4.6 mph - N/A   Clear
6:55 PM 80.6 °F 41.0 °F 24% 29.92 in 10.0 mi SW 3.5 mph - N/A   Clear
7:15 PM 78.8 °F 44.6 °F 30% 29.93 in 10.0 mi Calm Calm - N/A   Clear
7:35 PM 73.4 °F 44.6 °F 36% 29.93 in 10.0 mi Calm Calm - N/A   Clear
7:55 PM 71.6 °F 44.6 °F 38% 29.93 in 10.0 mi Calm Calm - N/A   Clear
8:15 PM 71.6 °F 44.6 °F 38% 29.93 in 10.0 mi Calm Calm - N/A   Clear
8:35 PM 66.2 °F 44.6 °F 46% 29.94 in 10.0 mi Calm Calm - N/A   Clear
8:55 PM 68.0 °F 44.6 °F 43% 29.94 in 10.0 mi Calm Calm - N/A   Clear
9:15 PM 66.2 °F 44.6 °F 46% 29.95 in 10.0 mi Calm Calm - N/A   Clear
9:35 PM 66.2 °F 50.0 °F 56% 29.95 in 10.0 mi Calm Calm - N/A   Clear
9:55 PM 66.2 °F 51.8 °F 60% 29.96 in 10.0 mi Calm Calm - N/A   Clear
10:15 PM 64.4 °F 48.2 °F 56% 29.96 in 10.0 mi Calm Calm - N/A   Clear
10:35 PM 64.4 °F 48.2 °F 56% 29.96 in 10.0 mi Calm Calm - N/A   Clear
10:55 PM 62.6 °F 50.0 °F 63% 29.96 in 10.0 mi Calm Calm - N/A   Clear
11:15 PM 62.6 °F 50.0 °F 63% 29.96 in 10.0 mi Calm Calm - N/A   Clear
11:35 PM 62.6 °F 53.6 °F 72% 29.96 in 10.0 mi Calm Calm - N/A   Clear
11:55 PM 60.8 °F 50.0 °F 68% 29.96 in 10.0 mi Calm Calm - N/A   Clear